Location: Armidale
(30.5016°S, 151.6662°E)
Time: 02:44:24
(UTC+10:00)

BEESAT 3 - Pass Details

Date: 29 July 2021
Orbit: 484 x 509 km, 64.9° (Epoch: 18 September)

Event Time Altitude Azimuth Distance (km) Brightness Sun altitude
Exits shadow 03:59:02 11° 87° (E) 1,606 ? -35.0°
Drops below altitude 10° 03:59:18 10° 83° (E) 1,674 ? -35.0°
Sets 04:02:01 0° 62° (ENE) 2,546 ? -34.4°
